Key West NAF, FL

10:25 PM EST on January 20, 2018 (GMT -0500)
Key West Naval Air Station

Weather History for KNQX - November, 2011

Change the Weather History Date:

Tuesday, November 1, 2011

  Actual Average Record
Temperature  
Mean Temperature 76 °F -  
Max Temperature 80 °F 81 °F 87 °F (1951)
Min Temperature 73 °F 73 °F 62 °F (1993)
Cooling Degree Days 12    
Growing Degree Days 26 (Base 50)    
Moisture  
Dew Point 70 °F    
Average Humidity 80    
Maximum Humidity 88    
Minimum Humidity 74    
Precipitation  
Precipitation 0.05 in - - ()
Sea Level Pressure  
Sea Level Pressure 30.01 in    
Wind  
Wind Speed 13 mph (NE)    
Max Wind Speed 17 mph    
Max Gust Speed 26 mph    
Visibility 10 miles    
Events Rain    
Averages and records for this station are not official NWS values.
T = Trace of Precipitation, MM = Missing Value Source: NWS Daily Summary

Daily Weather History Graph

Daily Weather History Graph

Search for Another Location

Airport or City:

Trip Planner

Search our weather history database for the weather conditions in past years. The results will help you decide how hot, cold, wet, or windy it might be!

Date:

Astronomy

Nov. 01, 2011 Rise Set
Actual Time 7:33 AM EDT 6:46 PM EDT
Civil Twilight 7:10 AM EDT 7:10 PM EDT
Nautical Twilight 6:43 AM EDT 7:37 PM EDT
Astronomical Twilight 6:16 AM EDT 8:04 PM EDT
Moon 1:12 PM EDT (11/1) No Moon Set
Length of Visible Light 12h 00m
Length of Day
11h 13m
Waxing Crescent, 39% of the Moon is Illuminated
Nov 1
Waxing Crescent
Nov 2
First Quarter
Nov 10
Full
Nov 18
Last Quarter
Nov 25
New

Hourly Weather History & Observations

Time (EDT) Temp. Heat Index Dew Point Humidity Pressure Visibility Wind Dir Wind Speed Gust Speed Precip Events Conditions
12:53 AM - - - N/A% 30.00 in 10.0 mi NNE 15.0 mph 20.7 mph N/A   Overcast
1:13 AM - - - N/A% 30.00 in 10.0 mi NNE 13.8 mph 23.0 mph N/A   Overcast
1:53 AM - - - N/A% 29.99 in 10.0 mi NNE 13.8 mph 21.9 mph N/A   Overcast
2:24 AM - - - N/A% 29.99 in 10.0 mi NE 13.8 mph 20.7 mph N/A   Overcast
2:53 AM - - - N/A% 29.99 in 10.0 mi NE 15.0 mph 21.9 mph N/A   Mostly Cloudy
3:53 AM - - - N/A% 29.99 in 10.0 mi NNE 9.2 mph 19.6 mph N/A   Overcast
4:53 AM - - - N/A% 29.98 in 10.0 mi NNE 11.5 mph - N/A   Overcast
5:53 AM - - - N/A% 29.99 in 10.0 mi NNE 13.8 mph 20.7 mph N/A   Overcast
6:53 AM 73.4 °F - 69.8 °F 88% 29.99 in 10.0 mi NNE 12.7 mph 23.0 mph N/A   Mostly Cloudy
7:53 AM 73.4 °F - 69.8 °F 88% 30.00 in 10.0 mi NNE 16.1 mph 25.3 mph N/A   Mostly Cloudy
8:48 AM 73.4 °F - 69.8 °F 88% 30.02 in 10.0 mi NNE 13.8 mph 26.5 mph N/A   Overcast
8:53 AM 73.4 °F - 69.8 °F 88% 30.02 in 10.0 mi NNE 17.3 mph 26.5 mph N/A   Overcast
9:53 AM 75.2 °F - 69.8 °F 83% 30.04 in 10.0 mi NNE 16.1 mph 24.2 mph N/A   Overcast
11:34 AM 77.0 °F - 69.8 °F 78% 30.05 in 10.0 mi NNE 13.8 mph 23.0 mph N/A   Mostly Cloudy
11:53 AM 77.0 °F - 69.8 °F 78% 30.05 in 10.0 mi NE 16.1 mph 21.9 mph N/A   Mostly Cloudy
12:53 PM 78.8 °F - 71.6 °F 78% 30.04 in 10.0 mi NE 10.4 mph 18.4 mph N/A   Mostly Cloudy
1:53 PM 80.6 °F 84.6 °F 71.6 °F 74% 30.01 in 10.0 mi NNE 13.8 mph 19.6 mph N/A   Mostly Cloudy
2:53 PM 80.6 °F 84.6 °F 71.6 °F 74% 30.00 in 10.0 mi NNE 13.8 mph 19.6 mph N/A   Mostly Cloudy
3:53 PM 78.8 °F - 70.0 °F 74% 29.99 in 10.0 mi NNE 9.2 mph - N/A   Mostly Cloudy
4:53 PM 78.8 °F - 70.0 °F 74% 29.99 in 10.0 mi NNE 11.5 mph - N/A   Mostly Cloudy
5:53 PM 78.8 °F - 70.0 °F 74% 30.00 in 10.0 mi NNE 9.2 mph - N/A   Scattered Clouds
6:53 PM 78.8 °F - 71.1 °F 77% 30.01 in 10.0 mi ENE 5.8 mph - 0.00 in   Mostly Cloudy
7:53 PM 77.0 °F - 70.0 °F 79% 30.02 in 10.0 mi ENE 8.1 mph - N/A   Mostly Cloudy
8:53 PM 77.0 °F - 70.0 °F 79% 30.04 in 7.0 mi East 9.2 mph - 0.05 in Rain Light Rain
9:16 PM 77.0 °F - 71.6 °F 83% 30.05 in 10.0 mi ENE 9.2 mph - 0.00 in   Mostly Cloudy
9:53 PM 77.0 °F - 71.1 °F 82% 30.05 in 10.0 mi NE 13.8 mph - 0.00 in   Mostly Cloudy
10:53 PM - - - N/A% 30.06 in 10.0 mi NE 12.7 mph 23.0 mph N/A   Clear
11:53 PM - - - N/A% 30.06 in 10.0 mi NE 16.1 mph 21.9 mph N/A   Partly Cloudy